Cloud_Cover
100 100 100 100 100 100 100 100 100 100 100 100 100 100 100 100 100 100 100 100 100 100 100 100 9 5 1 16 12 5 92 99 15 6 5 34 49 80 46 8 12 42 21 11 3 7 5
100 100 100 100 100 100 100 100 100 100 100 100 100 100 100 100 100 100 100 69 100 100 100 99 10 5 24 41 10 100 100 43 5 14 5 98 23 100 100 12 6 5 5 31 81 60 29
100 100 100 100 100 100 100 100 100 100 100 100 100 100 100 100 100 100 100 100 100 100 97 73 5 5 5 60 100 100 86 98 88 5 5 50 34 32 62 5 12 5 98 100 81 98 95
99 100 100 100 100 100 100 100 100 100 100 100 100 100 100 100 100 100 100 100 98 100 100 6 42 48 75 100 100 100 100 80 8 5 28 5 5 17 73 20 91 100 92 100 100 25 70
93 100 100 100 100 100 100 100 100 100 100 100 100 100 100 100 100 100 100 95 44 33 100 5 20 74 100 100 100 100 100 62 8 6 5 5 5 9 93 94 55 24 46 77 98 100 100
100 100 100 100 100 100 100 100 100 100 100 52 100 100 100 99 100 100 96 27 63 14 62 38 64 100 100 100 100 100 48 14 50 12 5 18 21 5 89 99 94 98 100 99 100 100 100
99 100 100 100 100 100 100 100 100 100 64 34 24 79 77 100 90 62 100 100 5 36 32 56 100 100 100 100 93 90 56 70 5 5 5 5 82 55 83 96 100 75 69 100 100 100 99
97 82 100 100 100 100 100 100 100 13 100 100 100 100 100 100 99 36 76 100 20 49 52 100 100 100 100 100 100 95 65 2 39 2 21 82 11 5 40 84 69 94 95 76 100 100 100
100 100 100 100 100 100 100 100 15 100 78 67 100 100 100 100 100 37 70 82 100 45 100 100 100 100 97 100 100 100 2 2 2 0 5 40 15 94 5 6 5 78 87 84 100 93 100
100 100 100 100 100 100 100 61 100 97 92 100 100 100 100 100 94 83 99 98 100 100 100 95 100 100 75 100 100 10 0 0 3 4 5 1 61 45 5 5 26 5 12 18 6 34 100
100 100 100 100 100 100 52 94 49 69 100 100 100 100 100 100 19 100 100 70 100 100 100 100 100 87 100 100 28 1 0 0 0 0 0 0 0 0 0 1 65 13 0 1 5 5 100
100 100 100 100 100 100 94 6 14 50 99 100 100 100 100 100 75 94 100 98 99 100 100 100 84 100 100 86 4 0 0 0 0 0 1 2 5 3 4 0 16 4 5 0 0 18 30
100 100 100 100 100 100 26 0 31 41 97 82 70 99 61 12 48 80 96 100 100 100 94 95 100 100 100 10 0 0 1 5 1 0 2 0 5 72 4 0 51 100 29 65 16 22 86
100 100 100 100 100 83 67 0 3 66 6 76 51 81 87 91 27 97 100 100 100 99 100 100 100 100 75 5 0 0 4 1 0 0 2 7 5 3 5 11 9 86 83 100 100 89 87
95 100 100 100 63 100 98 0 40 81 9 35 61 99 75 51 100 100 91 100 97 99 100 100 100 97 14 1 0 0 0 2 4 0 2 38 3 32 69 80 81 6 100 94 100 100 74
85 100 100 72 70 100 84 14 6 1 5 5 6 98 100 93 100 67 85 94 88 100 100 100 98 52 0 0 0 0 0 4 0 0 5 16 24 4 5 4 0 6 11 68 100 100 100
94 100 100 23 5 3 100 82 1 0 5 4 27 100 78 6 50 100 92 76 100 100 100 100 17 7 0 0 0 0 0 2 0 0 4 1 4 3 1 44 5 4 5 10 36 88 100
100 100 89 19 5 32 99 100 65 0 5 6 5 99 2 5 12 6 5 89 100 100 99 74 11 0 0 0 0 0 0 0 0 0 0 0 4 41 75 23 5 5 4 5 5 65 73
100 100 40 9 5 4 6 59 86 82 0 100 96 61 2 0 5 26 5 100 100 100 69 25 5 0 0 0 0 0 0 0 0 0 0 0 5 54 77 3 0 0 0 5 40 38 97
100 100 61 4 5 4 5 100 100 100 44 36 64 12 5 1 17 22 27 100 100 69 8 16 5 0 0 0 0 0 0 0 0 0 0 0 15 4 5 4 3 2 0 0 3 28 86
96 87 7 4 5 4 4 54 100 100 100 68 88 93 45 8 5 6 33 100 60 63 54 59 5 0 0 0 0 0 0 0 0 0 0 0 5 5 0 1 0 0 0 0 2 2 18
88 98 12 2 45 80 5 5 100 100 81 100 90 62 11 10 5 5 56 100 100 100 97 100 31 5 1 0 0 0 0 0 0 0 0 0 28 7 50 0 2 0 0 0 5 5 5
82 92 15 3 4 33 5 16 44 100 100 100 100 87 90 5 5 5 5 100 100 100 100 100 100 82 7 3 0 0 0 0 0 0 0 2 11 10 4 0 5 3 0 0 5 5 5
100 100 98 5 4 89 52 66 98 51 100 100 100 100 65 5 5 17 5 100 100 100 100 100 100 92 87 30 5 3 0 0 0 0 0 0 5 23 61 5 1 0 0 1 0 0 0
98 100 100 40 5 5 64 5 74 88 100 100 100 100 100 53 5 2 5 60 100 96 100 100 100 100 97 99 64 5 4 4 0 0 0 0 5 5 5 30 0 0 0 0 0 0 0
100 100 100 98 5 40 100 51 88 100 100 100 100 100 100 72 1 5 3 5 20 100 13 48 97 100 89 83 92 42 22 5 2 5 1 0 0 5 5 5 1 0 0 0 0 4 0
100 100 100 96 7 80 100 44 100 100 100 100 100 100 100 100 3 0 0 2 5 8 17 57 94 78 81 10 28 33 44 7 5 5 0 22 16 5 38 4 0 0 0 0 0 0 0
100 100 100 100 96 82 97 96 95 100 100 100 100 100 100 100 83 2 0 0 5 5 8 60 73 73 59 6 34 68 61 54 8 5 5 1 14 5 3 4 4 0 0 0 0 0 0
100 100 100 100 100 96 100 100 86 98 100 96 100 100 100 100 97 0 0 0 5 5 36 42 44 56 38 44 19 51 96 100 85 56 18 5 5 5 5 0 0 5 5 5 1 0 0